Sheridan, NY

12:01 PM EST on February 09, 2016 (GMT -0500)
Chautauqua County-Dunkirk

Weather History for KDKK - December, 2013

Change the Weather History Date:

Sunday, December 29, 2013

  Actual Average Record
Temperature  
Mean Temperature 36 °F -  
Max Temperature 45 °F 35 °F 62 °F (1990)
Min Temperature 28 °F 22 °F -6 °F (1933)
Degree Days  
Heating Degree Days 28    
Moisture  
Dew Point 30 °F    
Average Humidity 71    
Maximum Humidity 93    
Minimum Humidity 45    
Precipitation  
Precipitation 0.04 in - - ()
Sea Level Pressure  
Sea Level Pressure 29.77 in    
Wind  
Wind Speed 14 mph (SW)    
Max Wind Speed 17 mph    
Max Gust Speed 29 mph    
Visibility 9 miles    
Events Rain    
Averages and records for this station are not official NWS values.
T = Trace of Precipitation, MM = Missing Value Source: NWS Daily Summary

Daily Weather History Graph

Daily Weather History Graph

Search for Another Location

Airport or City:

Trip Planner

Search our weather history database for the weather conditions in past years. The results will help you decide how hot, cold, wet, or windy it might be!

Date:

Astronomy

Dec. 29, 2013 Rise Set
Actual Time 7:46 AM EST 4:52 PM EST
Civil Twilight 7:14 AM EST 5:24 PM EST
Nautical Twilight 6:38 AM EST 5:59 PM EST
Astronomical Twilight 6:04 AM EST 6:34 PM EST
Moon 4:26 AM EST (12/29) 2:30 PM EST (12/29)
Length of Visible Light 10h 10m
Length of Day
9h 06m
Waning Crescent, 11% of the Moon is Illuminated
Dec 29
Waning Crescent
Jan 1
New
Jan 7
First Quarter
Jan 15
Full
Jan 24
Last Quarter

Hourly Weather History & Observations

Time (EST) Temp. Windchill Dew Point Humidity Pressure Visibility Wind Dir Wind Speed Gust Speed Precip Events Conditions
12:53 AM 43.0 °F 35.4 °F 28.0 °F 56% 29.95 in 10.0 mi SSW 16.1 mph - N/A   Clear
4:53 AM 42.1 °F 34.5 °F 26.1 °F 53% 29.89 in 10.0 mi South 15.0 mph 23.0 mph N/A   Clear
5:53 AM 43.0 °F 35.4 °F 26.1 °F 51% 29.87 in 10.0 mi South 16.1 mph 21.9 mph N/A   Clear
6:53 AM 44.1 °F 36.8 °F 24.1 °F 45% 29.87 in 10.0 mi SSW 16.1 mph 28.8 mph N/A   Clear
7:53 AM 43.0 °F 36.8 °F 24.1 °F 47% 29.83 in 10.0 mi South 11.5 mph 21.9 mph N/A   Clear
8:53 AM 43.0 °F 35.4 °F 24.1 °F 47% 29.84 in 10.0 mi South 16.1 mph 21.9 mph N/A   Scattered Clouds
9:53 AM 43.0 °F 35.4 °F 24.1 °F 47% 29.82 in 10.0 mi South 16.1 mph 20.7 mph N/A   Overcast
10:53 AM 44.1 °F 39.0 °F 24.1 °F 45% 29.79 in 10.0 mi South 9.2 mph 18.4 mph N/A   Overcast
11:53 AM 45.0 °F 38.5 °F 32.0 °F 60% 29.73 in 10.0 mi South 13.8 mph 20.7 mph N/A   Overcast
12:53 PM 42.1 °F 34.9 °F 35.1 °F 76% 29.70 in 7.0 mi South 13.8 mph 19.6 mph 0.01 in Rain Light Rain
1:53 PM 42.1 °F 35.7 °F 36.0 °F 79% 29.67 in 10.0 mi South 11.5 mph 20.7 mph 0.03 in   Overcast
2:53 PM 42.1 °F 36.1 °F 36.0 °F 79% 29.65 in 10.0 mi South 10.4 mph 21.9 mph 0.00 in   Overcast
3:53 PM 42.1 °F 37.1 °F 36.0 °F 79% 29.66 in 10.0 mi WSW 8.1 mph - N/A   Overcast
4:53 PM 39.9 °F 36.7 °F 36.0 °F 86% 29.67 in 10.0 mi WSW 4.6 mph - N/A   Overcast
5:53 PM 39.0 °F 31.8 °F 32.0 °F 76% 29.68 in 10.0 mi SW 11.5 mph 19.6 mph N/A   Scattered Clouds
6:18 PM 39.2 °F 30.2 °F 32.0 °F 75% 29.68 in 10.0 mi WSW 17.3 mph 21.9 mph N/A   Mostly Cloudy
6:49 PM 37.4 °F 28.9 °F 32.0 °F 81% 29.69 in 10.0 mi WSW 13.8 mph 23.0 mph N/A   Partly Cloudy
6:53 PM 37.9 °F 30.0 °F 32.0 °F 79% 29.71 in 10.0 mi WSW 12.7 mph 21.9 mph N/A   Partly Cloudy
7:49 PM 37.4 °F 28.9 °F 32.0 °F 81% 29.72 in 10.0 mi WSW 13.8 mph - N/A   Mostly Cloudy
7:53 PM 37.0 °F 29.3 °F 32.0 °F 82% 29.74 in 10.0 mi WSW 11.5 mph - N/A   Mostly Cloudy
8:53 PM 37.0 °F 29.8 °F 32.0 °F 82% 29.75 in 10.0 mi SW 10.4 mph 18.4 mph N/A   Overcast
9:36 PM 37.4 °F 29.3 °F 33.8 °F 87% 29.75 in 8.0 mi WSW 12.7 mph 19.6 mph N/A   Overcast
9:53 PM 34.0 °F 23.4 °F 30.9 °F 89% 29.78 in 6.0 mi WNW 17.3 mph 24.2 mph N/A   Overcast
10:01 PM 32.0 °F 22.5 °F 30.2 °F 93% 29.77 in 5.0 mi WNW 12.7 mph 23.0 mph N/A   Overcast
10:53 PM 30.0 °F 21.1 °F 26.1 °F 85% 29.81 in 10.0 mi WNW 10.4 mph 20.7 mph N/A   Overcast
11:14 PM 28.4 °F 18.0 °F 23.0 °F 80% 29.82 in 10.0 mi West 12.7 mph - N/A   Overcast
11:53 PM 28.0 °F 18.1 °F 21.9 °F 78% 29.86 in 9.0 mi WNW 11.5 mph - N/A   Overcast